EW2323 Weather Reports


time (UTC)temp
C
wind
direction
speed
KPH
gust
KPH
rain 1hr
cm
rain 24hr
cm
rain mn
cm
humidity
%
barometer
mb
20240222101512 15 323 0.0 8.0 0.00 0.00 0.00 60 1007.9
20240222100010 15 28 0.0 6.4 0.00 0.00 0.00 59 1008.4
20240222094509 15 342 1.6 9.7 0.00 0.00 0.00 58 1008.7
20240222093007 15 356 0.0 6.4 0.00 0.00 0.00 58 1008.8
20240222091502 15 329 0.0 6.4 0.00 0.00 0.00 56 1009.1
20240222090001 15 334 3.2 14.5 0.00 0.00 0.00 56 1009.4
20240222084559 15 295 3.2 12.9 0.00 0.00 0.00 55 1009.6
20240222083106 15 9 6.4 16.1 0.00 0.00 0.00 55 1009.8
20240222081554 15 13 0.0 6.4 0.00 0.00 0.00 54 1010.3
20240222080052 15 15 0.0 6.4 0.00 0.00 0.00 53 1010.5
20240222074550 15 24 0.0 8.0 0.00 0.00 0.00 52 1011.0
20240222073055 15 336 0.0 8.0 0.00 0.00 0.00 52 1011.3
20240222071547 15 17 1.6 9.7 0.00 0.00 0.00 52 1011.3
20240222070051 15 17 0.0 6.4 0.00 0.00 0.00 50 1011.4
20240222064551 15 329 3.2 12.9 0.00 0.00 0.00 50 1011.5
20240222063043 15 333 1.6 12.9 0.00 0.00 0.00 49 1011.7
20240222061540 15 314 0.0 11.3 0.00 0.00 0.00 49 1011.8
20240222060042 15 338 3.2 12.9 0.00 0.00 0.00 48 1011.9
20240222054601 15 346 1.6 14.5 0.00 0.00 0.00 47 1012.1
20240222053035 15 302 0.0 6.4 0.00 0.00 0.00 47 1012.2
20240222051540 16 311 1.6 8.0 0.00 0.00 0.00 47 1012.6
20240222050029 16 324 3.2 9.7 0.00 0.00 0.00 47 1012.9
20240222044531 16 326 3.2 8.0 0.00 0.00 0.00 47 1013.3
20240222043029 16 1 0.0 6.4 0.00 0.00 0.00 48 1013.4
20240222041525 16 351 1.6 6.4 0.00 0.00 0.00 48 1013.4
20240222040027 15 351 3.2 9.7 0.00 0.00 0.00 49 1013.4
20240222034523 15 25 0.0 8.0 0.00 0.00 0.00 50 1013.4
20240222033024 14 333 3.2 12.9 0.00 0.00 0.00 51 1013.5
20240222031522 14 351 0.0 3.2 0.00 0.00 0.00 52 1013.7
20240222030029 13 351 0.0 1.6 0.00 0.00 0.00 54 1013.9
20240222024519 13 351 0.0 4.8 0.00 0.00 0.00 55 1014.0
20240222023025 13 351 0.0 1.6 0.00 0.00 0.00 56 1014.2
20240222021525 13 351 0.0 0.0 0.00 0.00 0.00 57 1014.4
20240222020014 13 351 0.0 0.0 0.00 0.00 0.00 55 1014.6
20240222014516 13 351 0.0 0.0 0.00 0.00 0.00 55 1014.4
20240222013016 13 351 0.0 0.0 0.00 0.00 0.00 54 1014.5
20240222011516 13 351 0.0 0.0 0.00 0.00 0.00 53 1014.6
20240222010013 14 351 0.0 0.0 0.00 0.00 0.00 52 1014.4
20240222004513 14 351 0.0 0.0 0.00 0.00 0.00 51 1014.3
20240222003014 15 351 0.0 0.0 0.00 0.00 0.00 50 1014.4
20240222001513 15 351 0.0 1.6 0.00 0.00 0.00 49 1014.4
20240222000010 16 351 0.0 0.0 0.00 0.00 0.00 47 1014.5
20240221234517 16 351 0.0 1.6 0.00 0.00 0.00 46 1014.6
20240221233006 16 351 0.0 0.0 0.00 0.00 0.00 44 1014.8
20240221231507 17 351 0.0 1.6 0.00 0.00 0.00 43 1014.9
20240221230005 17 351 0.0 6.4 0.00 0.00 0.00 42 1014.9
20240221224503 17 320 0.0 12.9 0.00 0.00 0.00 41 1015.0
20240221223114 18 15 0.0 8.0 0.00 0.00 0.00 41 1015.4
20240221221557 18 307 1.6 16.1 0.00 0.00 0.00 40 1015.5
20240221220057 18 334 0.0 14.5 0.00 0.00 0.00 39 1015.6
20240221214556 19 334 1.6 14.5 0.00 0.00 0.00 38 1015.6
20240221213053 20 29 0.0 9.7 0.00 0.00 0.00 38 1015.7
20240221211559 20 317 0.0 8.0 0.00 0.00 0.00 38 1016.0
20240221210102 20 53 1.6 17.7 0.00 0.00 0.00 38 1016.2
20240221204547 20 325 3.2 17.7 0.00 0.00 0.00 37 1016.3
20240221203047 20 1 3.2 12.9 0.00 0.00 0.00 38 1016.7
20240221201544 20 32 3.2 17.7 0.00 0.00 0.00 38 1017.0
20240221200038 20 327 6.4 19.3 0.00 0.00 0.00 39 1017.4
20240221194536 20 45 0.0 9.7 0.00 0.00 0.00 40 1017.6
20240221193034 19 36 3.2 16.1 0.00 0.00 0.00 41 1018.0
20240221191530 19 1 4.8 16.1 0.00 0.00 0.00 41 1018.2
20240221190037 18 262 3.2 9.7 0.00 0.00 0.00 42 1018.5
20240221184525 18 28 4.8 12.9 0.00 0.00 0.00 42 1018.9
20240221183024 18 70 4.8 17.7 0.00 0.00 0.00 43 1019.4
20240221181519 18 21 4.8 16.1 0.00 0.00 0.00 42 1019.8
20240221180024 18 334 3.2 16.1 0.00 0.00 0.00 42 1020.1
20240221174536 17 24 1.6 8.0 0.00 0.00 0.00 42 1020.4
20240221173012 17 351 3.2 14.5 0.00 0.00 0.00 43 1020.8
20240221171515 17 345 3.2 8.0 0.00 0.00 0.00 43 1020.8
20240221170005 16 46 1.6 12.9 0.00 0.00 0.00 44 1021.1
20240221164503 16 5 0.0 9.7 0.00 0.00 0.00 43 1021.5
20240221163103 15 1 0.0 6.4 0.00 0.00 0.00 45 1021.9
20240221161555 15 1 0.0 9.7 0.00 0.00 0.00 46 1022.2
20240221160049 13 323 0.0 6.4 0.00 0.00 0.00 48 1022.6
20240221154545 12 1 0.0 4.8 0.00 0.00 0.00 50 1022.8
20240221153048 11 1 0.0 4.8 0.00 0.00 0.00 52 1022.8
20240221151545 10 1 0.0 1.6 0.00 0.00 0.00 54 1022.9
20240221150032 8 1 0.0 3.2 0.00 0.00 0.00 58 1022.9
20240221144533 7 1 0.0 3.2 0.00 0.00 0.00 63 1023.0
20240221143024 5 1 0.0 0.0 0.00 0.00 0.00 72 1023.4
20240221141525 3 1 0.0 0.0 0.00 0.00 0.00 73 1023.6
20240221140019 2 1 0.0 0.0 0.00 0.00 0.00 77 1023.6
20240221134518 1 1 0.0 0.0 0.00 0.00 0.00 81 1023.6
20240221133015 0 1 0.0 0.0 0.00 0.00 0.00 80 1023.3
20240221131529 0 1 0.0 0.0 0.00 0.00 0.00 79 1023.5
20240221130012 0 1 0.0 0.0 0.00 0.00 0.00 78 1023.5
20240221124509 0 1 0.0 0.0 0.00 0.00 0.00 77 1023.5
20240221123008 0 1 0.0 0.0 0.00 0.00 0.00 77 1023.4
20240221121507 1 1 0.0 0.0 0.00 0.00 0.00 77 1023.4
20240221120004 1 1 0.0 0.0 0.00 0.00 0.00 76 1023.3
20240221114502 1 1 0.0 0.0 0.00 0.00 0.00 73 1023.2
20240221113001 1 1 0.0 0.0 0.00 0.00 0.00 73 1023.4
20240221111603 1 1 0.0 0.0 0.00 0.00 0.00 72 1023.6
20240221110058 1 1 0.0 0.0 0.00 0.00 0.00 71 1023.2
20240221104610 1 1 0.0 0.0 0.00 0.00 0.00 69 1023.2
20240221103107 2 1 0.0 0.0 0.00 0.00 0.00 70 1022.9